Cloquet, MN

6:17 AM CDT on October 14, 2019 (GMT -0500)
Cloquet Carlton County

Weather History for KCOQ - September, 2019

Change the Weather History Date:

Monday, September 16, 2019

  Actual Average Record
Temperature  
Mean Temperature 60 °F -  
Max Temperature 69 °F 63 °F 84 °F (2018)
Min Temperature 50 °F 45 °F 30 °F (2011)
Degree Days  
Heating Degree Days 6    
Growing Degree Days 10 (Base 50)    
Moisture  
Dew Point 52 °F    
Average Humidity 86    
Maximum Humidity 94    
Minimum Humidity 64    
Precipitation  
Precipitation 0.00 in - - ()
Sea Level Pressure  
Sea Level Pressure 30.03 in    
Wind  
Wind Speed 4 mph ()    
Max Wind Speed 9 mph    
Max Gust Speed -    
Visibility 3.7 miles    
Events Fog    
Averages and records for this station are not official NWS values.
T = Trace of Precipitation, MM = Missing Value Source: Averaged Metar Reports

Daily Weather History Graph

Daily Weather History Graph

Search for Another Location

Airport or City:

Astronomy

Sep. 16, 2019 Rise Set
Actual Time 6:48 AM CDT 7:20 PM CDT
Civil Twilight 6:18 AM CDT 7:50 PM CDT
Nautical Twilight 5:42 AM CDT 8:26 PM CDT
Astronomical Twilight 5:04 AM CDT 9:03 PM CDT
Moon 8:47 PM CDT (9/16) 9:01 AM CDT (9/16)
Length of Visible Light 13h 31m
Length of Day
12h 31m
Waning Gibbous, 94% of the Moon is Illuminated
Sep 16
Waning Gibbous
Sep 21
Last Quarter
Sep 28
New
Oct 5
First Quarter
Oct 13
Full

Hourly Weather History & Observations

Time (CDT) Temp. Dew Point Humidity Pressure Visibility Wind Dir Wind Speed Gust Speed Precip Events Conditions
12:15 AM 53.6 °F 51.8 °F 94% 30.02 in 0.2 mi Calm Calm - N/A Fog Fog
12:16 AM 53.6 °F 51.8 °F 94% 30.02 in 0.2 mi ESE 3.5 mph - N/A Fog Fog
12:35 AM 51.8 °F 50.0 °F 94% 30.03 in 0.2 mi Calm Calm - N/A Fog Fog
12:55 AM 51.8 °F 50.0 °F 94% 30.03 in 0.2 mi ESE 3.5 mph - N/A Fog Fog
1:15 AM 51.8 °F 50.0 °F 94% 30.03 in 0.2 mi Calm Calm - N/A Fog Fog
1:35 AM 51.8 °F 48.2 °F 88% 30.04 in 0.2 mi Calm Calm - N/A Fog Fog
1:36 AM 51.8 °F 48.2 °F 88% 30.04 in 0.2 mi ESE 3.5 mph - N/A Fog Fog
1:55 AM 51.8 °F 48.2 °F 88% 30.04 in 0.2 mi ESE 3.5 mph - N/A Fog Fog
1:56 AM 51.8 °F 48.2 °F 88% 30.04 in 0.2 mi ESE 3.5 mph - N/A Fog Fog
2:15 AM 51.8 °F 48.2 °F 88% 30.04 in 0.2 mi ESE 3.5 mph - N/A Fog Fog
2:35 AM 51.8 °F 48.2 °F 88% 30.04 in 0.2 mi ESE 3.5 mph - N/A Fog Fog
2:36 AM 51.8 °F 48.2 °F 88% 30.04 in 0.2 mi ESE 3.5 mph - N/A Fog Fog
2:55 AM 51.8 °F 48.2 °F 88% 30.04 in 0.2 mi ESE 3.5 mph - N/A Fog Fog
3:15 AM 51.8 °F 48.2 °F 88% 30.04 in 0.2 mi ESE 3.5 mph - N/A Fog Fog
3:35 AM 51.8 °F 48.2 °F 88% 30.05 in 0.2 mi Calm Calm - N/A Fog Fog
4:15 AM 50.0 °F 48.2 °F 94% 30.05 in 0.2 mi ESE 3.5 mph - N/A Fog Fog
4:16 AM 50.0 °F 48.2 °F 94% 30.05 in 0.2 mi ESE 3.5 mph - N/A Fog Fog
4:35 AM 50.0 °F 48.2 °F 94% 30.05 in 0.2 mi Calm Calm - N/A Fog Fog
4:55 AM 50.0 °F 48.2 °F 94% 30.05 in 0.2 mi ESE 4.6 mph - N/A Fog Fog
4:56 AM 50.0 °F 48.2 °F 94% 30.05 in 0.2 mi ESE 4.6 mph - N/A Fog Fog
5:15 AM 51.8 °F 48.2 °F 88% - 0.2 mi ESE 5.8 mph - N/A Fog Fog
5:16 AM 51.8 °F 48.2 °F 88% 30.05 in 0.2 mi ESE 5.8 mph - N/A Fog Fog
5:35 AM 51.8 °F 48.2 °F 88% 30.05 in 0.2 mi ESE 5.8 mph - N/A Fog Fog
5:36 AM 51.8 °F 48.2 °F 88% 30.05 in 0.2 mi ESE 4.6 mph - N/A Fog Fog
5:55 AM 51.8 °F 48.2 °F 88% 30.05 in 0.2 mi ESE 4.6 mph - N/A Fog Fog
6:15 AM 51.8 °F 48.2 °F 88% 30.05 in 0.2 mi ESE 4.6 mph - N/A Fog Fog
6:16 AM 51.8 °F 48.2 °F 88% 30.05 in 0.2 mi ESE 4.6 mph - N/A Fog Fog
6:35 AM 51.8 °F 48.2 °F 88% 30.06 in 0.2 mi ESE 3.5 mph - N/A Fog Fog
6:55 AM 51.8 °F 48.2 °F 88% 30.06 in 0.2 mi ESE 3.5 mph - N/A Fog Fog
6:56 AM 51.8 °F 48.2 °F 88% 30.06 in 0.2 mi ESE 4.6 mph - N/A Fog Fog
7:15 AM 51.8 °F 48.2 °F 88% 30.06 in 0.2 mi ESE 4.6 mph - N/A Fog Fog
7:35 AM 51.8 °F 48.2 °F 88% 30.07 in 0.2 mi ESE 3.5 mph - N/A Fog Fog
7:36 AM 51.8 °F 48.2 °F 88% 30.07 in 0.2 mi ESE 3.5 mph - N/A Fog Fog
7:55 AM 51.8 °F 48.2 °F 88% 30.07 in 0.2 mi ESE 4.6 mph - N/A Fog Fog
8:15 AM 51.8 °F 50.0 °F 94% 30.07 in 0.2 mi ESE 5.8 mph - N/A Fog Fog
8:16 AM 51.8 °F 50.0 °F 94% 30.07 in 0.2 mi ESE 4.6 mph - N/A Fog Fog
8:35 AM 51.8 °F 50.0 °F 94% 30.07 in 0.2 mi ESE 5.8 mph - N/A Fog Fog
8:36 AM 51.8 °F 50.0 °F 94% 30.07 in 0.2 mi ESE 4.6 mph - N/A Fog Fog
8:55 AM 53.6 °F 51.8 °F 94% 30.06 in 0.2 mi East 5.8 mph - N/A Fog Fog
9:15 AM 53.6 °F 51.8 °F 94% 30.07 in 0.2 mi ESE 4.6 mph - N/A Fog Fog
9:16 AM 53.6 °F 51.8 °F 94% 30.07 in 0.2 mi ESE 5.8 mph - N/A Fog Fog
9:35 AM 53.6 °F 51.8 °F 94% 30.06 in 0.2 mi East 4.6 mph - N/A Fog Fog
9:55 AM 55.4 °F 53.6 °F 94% 30.06 in 0.2 mi East 4.6 mph - N/A Fog Fog
10:15 AM 55.4 °F 53.6 °F 94% 30.06 in 0.2 mi East 4.6 mph - N/A Fog Fog
10:16 AM 55.4 °F 53.6 °F 94% 30.06 in 0.2 mi East 4.6 mph - N/A Fog Fog
10:35 AM 55.4 °F 53.6 °F 94% 30.06 in 0.8 mi ESE 5.8 mph - N/A   Overcast
10:55 AM 57.2 °F 53.6 °F 88% 30.06 in 2.0 mi ESE 4.6 mph - N/A   Overcast
11:15 AM 57.2 °F 55.4 °F 94% 30.06 in 7.0 mi SE 3.5 mph - N/A   Mostly Cloudy
11:16 AM 57.2 °F 55.4 °F 94% 30.06 in 7.0 mi ESE 4.6 mph - N/A   Mostly Cloudy
11:35 AM 59.0 °F 57.2 °F 94% 30.05 in 10.0 mi ESE 5.8 mph - N/A   Scattered Clouds
11:36 AM 59.0 °F 57.2 °F 94% 30.05 in 10.0 mi ESE 5.8 mph - N/A   Scattered Clouds
11:55 AM 60.8 °F 57.2 °F 88% 30.05 in 10.0 mi ESE 5.8 mph - N/A   Clear
11:56 AM 60.8 °F 57.2 °F 88% 30.05 in 10.0 mi ESE 5.8 mph - N/A   Clear
12:15 PM 62.6 °F 57.2 °F 82% 30.05 in 10.0 mi ESE 5.8 mph - N/A   Clear
12:16 PM 62.6 °F 57.2 °F 82% 30.05 in 10.0 mi ESE 5.8 mph - N/A   Clear
12:35 PM 66.2 °F 57.2 °F 73% 30.04 in 10.0 mi ESE 4.6 mph - N/A   Clear
12:55 PM 66.2 °F 57.2 °F 73% 30.04 in 10.0 mi East 5.8 mph - N/A   Clear
1:15 PM 66.2 °F 57.2 °F 73% 30.03 in 10.0 mi ESE 6.9 mph - N/A   Clear
1:35 PM 68.0 °F 57.2 °F 68% 30.03 in 10.0 mi East 5.8 mph - N/A   Clear
1:55 PM 66.2 °F 55.4 °F 68% 30.03 in 10.0 mi ESE 8.1 mph - N/A   Clear
1:56 PM 66.2 °F 55.4 °F 68% 30.03 in 10.0 mi East 6.9 mph - N/A   Clear
2:15 PM 68.0 °F 55.4 °F 64% 30.02 in 10.0 mi East 6.9 mph - N/A   Clear
2:35 PM 69.8 °F 57.2 °F 64% 30.02 in 10.0 mi SE 4.6 mph - N/A   Clear
2:55 PM 68.0 °F 57.2 °F 68% 30.02 in 10.0 mi East 6.9 mph - N/A   Clear
3:15 PM 68.0 °F 57.2 °F 68% 30.02 in 10.0 mi East 9.2 mph - N/A   Clear
3:35 PM 68.0 °F 55.4 °F 64% 30.01 in 10.0 mi ESE 8.1 mph - N/A   Clear
3:36 PM 68.0 °F 55.4 °F 64% 30.01 in 10.0 mi ESE 6.9 mph - N/A   Clear
3:55 PM 68.0 °F 57.2 °F 68% 30.01 in 10.0 mi ESE 6.9 mph - N/A   Clear
3:56 PM 68.0 °F 57.2 °F 68% 30.01 in 10.0 mi ESE 5.8 mph - N/A   Clear
4:15 PM 68.0 °F 57.2 °F 68% 30.01 in 10.0 mi East 9.2 mph - N/A   Clear
4:16 PM 68.0 °F 57.2 °F 68% 30.01 in 10.0 mi East 9.2 mph - N/A   Clear
4:35 PM 66.2 °F 55.4 °F 68% 30.01 in 10.0 mi ESE 8.1 mph - N/A   Clear
4:55 PM 66.2 °F 55.4 °F 68% 30.00 in 10.0 mi ESE 8.1 mph - N/A   Clear
5:15 PM 64.4 °F 55.4 °F 73% 30.00 in 10.0 mi East 8.1 mph - N/A   Clear
5:16 PM 64.4 °F 55.4 °F 73% 30.00 in 10.0 mi ESE 8.1 mph - N/A   Clear
5:35 PM 64.4 °F 55.4 °F 73% 30.00 in 10.0 mi ESE 6.9 mph - N/A   Clear
5:55 PM 62.6 °F 55.4 °F 77% 29.99 in 10.0 mi ESE 5.8 mph - N/A   Clear
5:56 PM 62.6 °F 55.4 °F 77% 29.99 in 10.0 mi ESE 5.8 mph - N/A   Clear
6:15 PM 60.8 °F 55.4 °F 82% 29.99 in 10.0 mi ESE 6.9 mph - N/A   Clear
6:35 PM 60.8 °F 53.6 °F 77% 29.99 in 10.0 mi ESE 5.8 mph - N/A   Clear
6:55 PM 57.2 °F 53.6 °F 88% 29.99 in 10.0 mi ESE 4.6 mph - N/A   Clear
6:56 PM 57.2 °F 53.6 °F 88% 29.99 in 10.0 mi ESE 4.6 mph - N/A   Clear
7:15 PM 57.2 °F 53.6 °F 88% 29.99 in 10.0 mi ESE 5.8 mph - N/A   Scattered Clouds
7:35 PM 55.4 °F 53.6 °F 94% 29.99 in 5.0 mi ESE 5.8 mph - N/A   Mostly Cloudy
7:36 PM 55.4 °F 53.6 °F 94% 29.99 in 4.0 mi East 5.8 mph - N/A   Overcast
7:55 PM 55.4 °F 53.6 °F 94% 30.00 in 0.5 mi ESE 5.8 mph - N/A Fog Fog
8:15 PM 55.4 °F 53.6 °F 94% 30.00 in 0.8 mi East 5.8 mph - N/A   Overcast
8:16 PM 55.4 °F 53.6 °F 94% 30.00 in 0.8 mi ESE 5.8 mph - N/A   Overcast
8:35 PM 55.4 °F 53.6 °F 94% 30.00 in 0.5 mi East 8.1 mph - N/A Fog Fog
8:36 PM 55.4 °F 53.6 °F 94% 30.00 in 0.5 mi East 6.9 mph - N/A Fog Fog
8:55 PM 55.4 °F 51.8 °F 88% 30.00 in 0.2 mi ESE 4.6 mph - N/A Fog Fog
9:15 PM 55.4 °F 51.8 °F 88% 30.01 in 0.2 mi ESE 4.6 mph - N/A Fog Fog
9:16 PM 55.4 °F 51.8 °F 88% 30.00 in 0.2 mi ESE 4.6 mph - N/A Fog Fog
9:35 PM 53.6 °F 51.8 °F 94% 30.00 in 0.2 mi ESE 5.8 mph - N/A Fog Fog
9:55 PM 53.6 °F 51.8 °F 94% 30.00 in 0.2 mi ESE 4.6 mph - N/A Fog Fog
9:56 PM 53.6 °F 51.8 °F 94% 30.01 in 0.2 mi East 4.6 mph - N/A Fog Fog
10:35 PM 53.6 °F 51.8 °F 94% 30.01 in 0.2 mi ESE 5.8 mph - N/A Fog Fog
10:55 PM 53.6 °F 51.8 °F 94% 30.01 in 0.2 mi East 4.6 mph - N/A Fog Fog
10:56 PM 53.6 °F 51.8 °F 94% 30.01 in 0.2 mi East 4.6 mph - N/A Fog Fog
11:15 PM 53.6 °F 51.8 °F 94% 30.01 in 0.2 mi ESE 4.6 mph - N/A Fog Fog
11:35 PM 53.6 °F 51.8 °F 94% 30.01 in 0.2 mi ESE 3.5 mph - N/A Fog Fog
11:55 PM 53.6 °F 51.8 °F 94% 30.00 in 0.2 mi ESE 5.8 mph - N/A Fog Fog